Hourly Data Report for June 19, 2021

WESTERN HEAD
NOVA SCOTIA
Current Station Operator: ECCC - MSC

43°59'24.070" N
64°39'51.008" W
10.10 m
8206240
71411
WWE

Download Data

Hourly Data (June 2021)
Hourly Data Report for June 19, 2021
TIME
LST
Temp Definition
°C
Dew Point Definition
°C
Rel Hum Definition
%
Precip. Amount Definition
mm

Wind Dir Definition
10's deg

Wind Spd Definition
km/h
Visibility Definition
km
Stn Press Definition
kPa
Hmdx Definition


Wind Chill Definition


Weather Definition


00:00 9.4 9.3 99 0.0 23 11   101.21     LegendNANA
01:00 8.8 8.8 100 0.0 24 10   101.17     LegendNANA
02:00 8.4 8.4 100 0.0 19 9   101.17     LegendNANA
03:00 8.6 LegendMM LegendMM 0.0 19 12   101.15     LegendNANA
04:00 9.0 LegendMM LegendMM 0.0 20 10   101.12     LegendNANA
05:00 9.5 LegendMM LegendMM 0.0 21 10   101.11     LegendNANA
06:00 10.6 LegendMM LegendMM 0.2 20 14   101.06     LegendNANA
07:00 11.6 LegendMM LegendMM 0.0 20 17   101.02     LegendNANA
08:00 12.4 LegendMM LegendMM 0.0 19 25   100.99     LegendNANA
09:00 13.2 LegendMM LegendMM 0.0 20 25   100.95     LegendNANA
10:00 13.2 13.2 100 0.0 20 25   100.92     LegendNANA
11:00 13.7 13.7 100 0.0 19 24   100.91     LegendNANA
12:00 15.4 12.7 84 0.0 18 29   100.88     LegendNANA
13:00 15.5 12.7 83 0.0 19 29   100.84     LegendNANA
14:00 14.1 11.8 86 0.0 18 29   100.83     LegendNANA
15:00 12.8 11.4 91 0.0 18 22   100.80     LegendNANA
16:00 12.5 11.8 96 0.0 19 22   100.79     LegendNANA
17:00 11.4 11.3 100 0.0 20 19   100.63     LegendNANA
18:00 11.6 11.6 100 0.5 22 14   100.56     LegendNANA
19:00 13.0 LegendMM LegendMM 0.0 22 22   100.56     LegendNANA
20:00 11.7 LegendMM LegendMM 0.5 21 24   100.49     LegendNANA
21:00 11.0 LegendMM LegendMM 0.0 20 15   100.47     LegendNANA
22:00 10.9 LegendMM LegendMM 0.0 22 14   100.42     LegendNANA
23:00 10.2 LegendMM LegendMM 0.0 23 8   100.39     LegendNANA

Notes on Data Quality.

Legend

  • E = Estimated
  • M = Missing
  • NA = Not Available*
  • [empty] = Indicates an unobserved value
Date modified: